EW0139 Weather Reports


time (UTC)temp
F
wind
direction
speed
knots
gust
knots
rain 1hr
in
rain 24hr
in
rain mn
in
humidity
%
barometer
mb
20260901160802 71 121 8.7 11.3 0.00 0.00 0.00 40 1013.5
20260901155242 68 84 7.0 9.6 0.00 0.00 0.00 43 1013.7
20260901153743 65 136 2.6 9.6 0.00 0.00 0.00 48 1013.7
20260901152248 67 115 6.1 7.8 0.00 0.00 0.00 44 1013.7
20260901150809 65 79 3.5 5.2 0.00 0.00 0.00 47 1013.6
20260901145249 63 36 0.0 4.3 0.00 0.00 0.00 49 1013.6
20260901143755 62 36 2.6 5.2 0.00 0.00 0.00 52 1013.6
20260901142240 59 14 0.9 4.3 0.00 0.00 0.00 56 1013.8
20260901140808 57 10 0.0 5.2 0.00 0.00 0.00 57 1014.0
20260901135247 55 331 0.0 4.3 0.00 0.00 0.00 61 1014.0
20260901133748 52 275 2.6 2.6 0.00 0.00 0.00 65 1014.2
20260901132313 48 263 0.9 1.7 0.00 0.00 0.00 72 1014.3
20260901130752 45 259 0.0 0.9 0.00 0.00 0.00 75 1014.2
20260901125254 44 258 0.0 0.0 0.00 0.00 0.00 73 1014.4
20260901123739 45 258 0.0 0.0 0.00 0.00 0.00 73 1014.3
20260901122244 45 258 0.0 2.6 0.00 0.00 0.00 72 1014.0
20260901120753 45 240 0.0 0.9 0.00 0.00 0.00 73 1013.9
20260901115314 45 239 0.0 0.0 0.00 0.00 0.00 72 1014.0
20260901113756 46 240 0.0 0.0 0.00 0.00 0.00 72 1014.1
20260901112241 46 240 0.0 3.5 0.00 0.00 0.00 70 1013.9
20260901110802 48 285 0.0 0.0 0.00 0.00 0.00 67 1013.7
20260901105242 48 285 0.0 0.0 0.00 0.00 0.00 67 1013.6
20260901103750 47 285 0.0 1.7 0.00 0.00 0.00 68 1014.5
20260901102251 48 285 0.0 0.0 0.00 0.00 0.00 68 1014.5
20260901100756 48 285 0.0 0.0 0.00 0.00 0.00 67 1014.6
20260901095256 48 285 0.0 0.9 0.00 0.00 0.00 67 1014.6
20260901093757 48 285 0.0 0.9 0.00 0.00 0.00 66 1014.7
20260901092301 48 285 0.0 0.9 0.00 0.00 0.00 65 1014.6
20260901090744 47 285 0.0 0.9 0.00 0.00 0.00 67 1014.5
20260901085249 48 285 0.0 1.7 0.00 0.00 0.00 64 1014.6
20260901083812 49 285 0.0 2.6 0.00 0.00 0.00 64 1014.7
20260901082250 48 285 0.0 2.6 0.00 0.00 0.00 65 1014.7
20260901080813 47 285 0.0 0.0 0.00 0.00 0.00 66 1015.0
20260901075257 46 285 0.0 0.0 0.00 0.00 0.00 67 1014.9
20260901073757 47 285 0.0 0.0 0.00 0.00 0.00 68 1014.7
20260901072244 47 285 0.9 0.9 0.00 0.00 0.00 67 1014.8
20260901070744 48 285 0.0 1.7 0.00 0.00 0.00 66 1014.5
20260901065244 48 285 0.0 0.0 0.00 0.00 0.00 66 1014.8
20260901063751 49 285 0.0 0.0 0.00 0.00 0.00 62 1014.5
20260901062253 49 285 0.0 0.0 0.00 0.00 0.00 62 1014.4
20260901060752 50 285 0.0 0.0 0.00 0.00 0.00 61 1014.0
20260901055256 50 285 0.0 0.9 0.00 0.00 0.00 60 1014.0
20260901053757 51 285 0.0 1.7 0.00 0.00 0.00 59 1013.8
20260901052243 52 285 0.0 0.0 0.00 0.00 0.00 58 1014.0
20260901050744 53 285 0.0 0.0 0.00 0.00 0.00 57 1013.7
20260901045245 54 285 0.0 0.0 0.00 0.00 0.00 55 1013.8
20260901043814 56 285 0.0 0.0 0.00 0.00 0.00 52 1013.8
20260901042253 56 285 0.0 0.0 0.00 0.00 0.00 51 1013.8
20260901040755 56 285 0.0 1.7 0.00 0.00 0.00 52 1013.8
20260901035300 57 285 0.0 2.6 0.00 0.00 0.00 50 1013.7
20260901033742 59 285 0.0 0.9 0.00 0.00 0.00 48 1013.6
20260901032246 60 285 0.0 0.9 0.00 0.00 0.00 47 1013.3
20260901030810 60 285 0.0 0.9 0.00 0.00 0.00 47 1013.3
20260901025313 62 285 0.0 0.9 0.00 0.00 0.00 45 1013.3
20260901023754 64 285 0.0 1.7 0.00 0.00 0.00 43 1013.0
20260901022300 65 285 0.9 1.7 0.00 0.00 0.00 42 1013.0
20260901020741 69 285 2.6 4.3 0.00 0.00 0.00 38 1013.0
20260901015250 71 288 3.5 5.2 0.00 0.00 0.00 36 1012.7
20260901013752 73 281 5.2 11.3 0.00 0.00 0.00 35 1012.6
20260901012314 74 281 8.7 9.6 0.00 0.00 0.00 34 1012.4
20260901010800 76 280 11.3 13.0 0.00 0.00 0.00 33 1012.2
20260901005302 76 283 12.2 18.2 0.00 0.00 0.00 32 1012.2
20260901003741 77 285 13.0 14.8 0.00 0.00 0.00 32 1012.1
20260901002249 77 279 13.9 19.1 0.00 0.00 0.00 32 1012.1
20260901000750 78 290 12.2 20.9 0.00 0.00 0.00 31 1011.9
20260831235255 78 257 20.9 20.9 0.00 0.00 0.00 32 1012.0
20260831233756 78 288 12.2 24.3 0.00 0.00 0.00 32 1011.9
20260831232257 78 274 16.5 20.9 0.00 0.00 0.00 32 1012.0
20260831230745 78 263 20.0 20.0 0.00 0.00 0.00 32 1011.9
20260831225246 78 272 15.6 24.3 0.00 0.00 0.00 31 1012.0
20260831223807 78 273 17.4 21.7 0.00 0.00 0.00 31 1012.1
20260831222250 79 277 16.5 23.5 0.00 0.00 0.00 31 1012.1
20260831220752 78 291 19.1 25.2 0.00 0.00 0.00 31 1011.9
20260831215314 78 242 14.8 24.3 0.00 0.00 0.00 32 1011.7
20260831213740 78 298 16.5 27.8 0.00 0.00 0.00 31 1011.9
20260831212243 78 281 20.9 26.9 0.00 0.00 0.00 32 1011.9
20260831210752 78 298 23.5 26.1 0.00 0.00 0.00 31 1011.8
20260831205252 78 273 12.2 20.9 0.00 0.00 0.00 32 1012.0
20260831203752 77 264 12.2 26.1 0.00 0.00 0.00 34 1012.1
20260831202257 76 271 24.3 25.2 0.00 0.00 0.00 35 1011.9
20260831200818 77 268 16.5 26.1 0.00 0.00 0.00 35 1011.1
20260831195319 76 274 15.6 27.8 0.00 0.00 0.00 36 1011.1
20260831193741 76 283 26.1 26.1 0.00 0.00 0.00 35 1011.0
20260831192242 76 267 26.1 26.9 0.00 0.00 0.00 36 1011.1
20260831190749 75 270 15.6 27.8 0.00 0.00 0.00 36 1011.1
20260831185254 76 287 18.2 26.1 0.00 0.00 0.00 36 1011.1
20260831183757 75 287 26.9 29.5 0.00 0.00 0.00 37 1010.9
20260831182300 74 275 19.1 26.9 0.00 0.00 0.00 37 1010.9
20260831180742 74 284 21.7 26.1 0.00 0.00 0.00 40 1010.9
20260831175249 74 243 20.0 26.1 0.00 0.00 0.00 40 1010.8
20260831173749 73 234 18.2 27.8 0.00 0.00 0.00 41 1010.9
20260831172249 72 281 24.3 27.8 0.00 0.00 0.00 42 1010.9
20260831170754 71 246 17.4 26.1 0.00 0.00 0.00 43 1010.9
20260831165315 71 252 22.6 25.2 0.00 0.00 0.00 43 1010.7
20260831163755 70 269 21.7 27.8 0.00 0.00 0.00 44 1010.4
20260831162241 70 264 22.6 26.1 0.00 0.00 0.00 44 1010.3